Wind_Speed
68 68 69 71 72 73 73 73 72 78 87 87 98 112 123 135 136 135 134 131 130 121 114 108 103 96 91 86 86 78 78 79 70 53 48 44 55 69 84 87 84 73 65 62
57 55 55 57 56 56 56 56 56 64 72 75 84 91 99 119 134 139 139 137 135 128 118 114 110 103 90 85 87 83 83 82 82 48 50 54 71 80 85 86 82 76 75 81
47 46 46 44 43 43 46 44 44 49 59 66 71 76 87 99 116 135 142 140 139 136 125 119 115 111 96 83 83 86 88 85 90 79 51 56 56 60 71 68 51 68 82 71
39 40 38 38 36 34 40 34 39 42 48 57 59 66 73 87 100 116 132 145 143 140 134 126 121 119 103 89 84 86 90 88 83 86 65 32 44 61 70 71 79 73 74 70
34 35 35 35 32 28 31 29 32 37 39 47 52 49 65 74 83 99 115 133 146 144 141 134 125 123 111 98 88 86 90 90 84 79 84 75 66 63 39 32 42 56 66 67
38 29 33 30 31 28 28 26 29 31 33 41 43 42 59 61 72 86 103 118 136 147 144 138 130 124 114 105 94 86 87 90 87 81 80 60 41 44 54 63 57 54 49 52
33 33 30 29 31 37 33 29 27 28 31 36 38 40 54 58 57 72 87 103 118 140 142 138 133 127 116 105 98 91 87 86 89 85 76 76 65 76 74 78 61 58 58 56
30 33 36 35 35 37 40 35 31 25 29 35 41 39 46 48 53 63 73 88 103 119 139 133 135 128 118 107 99 95 89 87 87 89 92 92 101 93 85 70 60 42 52 63
25 29 32 31 34 29 32 32 29 26 30 35 37 34 40 45 51 54 63 74 86 102 121 128 129 130 122 110 100 95 90 87 86 85 92 93 90 85 83 81 71 70 64 64
26 26 31 33 30 29 26 29 28 26 23 28 30 33 40 43 47 49 57 66 75 89 103 119 113 130 125 114 102 97 91 91 83 83 83 82 76 70 63 79 80 70 69 65
26 26 31 30 27 31 29 29 30 26 21 24 23 32 37 39 42 45 53 60 73 82 93 106 106 117 125 114 105 100 97 89 82 80 77 73 67 73 85 82 78 78 81 85
25 25 28 35 34 31 29 28 29 25 23 19 20 30 33 33 37 42 48 54 61 70 81 94 102 105 111 114 104 100 95 89 81 76 71 65 67 66 72 74 79 86 91 92
24 26 22 27 35 38 32 25 24 22 20 19 16 31 25 31 34 38 40 45 52 62 72 84 93 91 102 110 105 99 94 81 75 70 63 60 60 53 53 65 75 82 83 79
25 25 25 27 33 27 23 19 20 19 17 17 21 26 22 27 27 30 33 39 45 55 63 71 77 85 96 105 104 97 84 72 66 62 55 51 55 56 59 58 59 61 64 61
28 29 27 26 28 28 18 15 14 15 14 16 19 25 22 21 21 28 31 34 39 49 56 64 74 83 93 100 94 79 68 60 55 51 51 53 51 53 55 56 58 55 58 60
28 28 31 27 26 22 15 12 11 11 10 16 19 19 21 22 24 29 35 39 44 50 55 64 74 84 92 86 74 68 52 52 48 42 45 46 53 52 54 61 60 56 61 67
26 26 28 23 20 17 13 9 10 7 6 10 11 14 21 25 30 32 35 42 47 54 56 63 71 83 84 76 63 49 47 43 47 37 41 41 44 48 62 56 57 60 66 68
27 28 25 19 17 16 16 10 8 4 5 9 13 19 23 27 31 33 40 46 52 58 59 50 66 76 77 70 59 57 35 41 46 41 36 40 41 67 71 66 63 65 63 60
25 27 23 18 13 13 15 11 8 2 9 14 17 21 22 24 34 46 54 55 56 60 58 58 72 76 76 72 62 54 52 49 40 40 41 66 58 78 70 65 63 66 63 62
20 23 24 23 14 9 12 14 9 1 13 22 22 28 36 40 58 59 61 59 57 59 55 65 70 78 77 73 69 54 51 55 44 35 57 56 66 83 74 67 67 64 60 55
20 18 19 20 18 10 9 13 7 7 15 30 36 40 59 68 74 68 69 70 68 57 49 52 69 73 77 75 71 57 59 60 68 66 58 63 75 79 80 74 69 63 57 54
18 19 18 14 16 9 4 13 7 16 29 36 47 63 84 89 85 81 76 67 61 50 43 52 67 74 76 73 68 63 65 62 69 61 56 62 74 76 71 68 62 58 59 61
18 17 14 12 11 5 5 14 17 27 35 48 71 90 99 87 83 77 74 72 50 36 54 59 72 74 78 78 74 71 63 58 66 68 55 67 76 77 72 71 69 64 67 70
16 16 13 9 9 3 12 18 24 36 45 71 84 103 93 87 82 82 75 62 49 47 54 65 66 70 69 74 72 69 65 60 58 59 63 74 76 73 66 63 64 65 68 71
13 14 12 6 3 9 19 26 36 46 64 76 101 109 97 88 77 73 59 57 48 58 39 52 65 72 72 71 67 64 57 64 58 65 74 71 64 63 60 62 65 64 67 69
12 13 9 3 8 17 24 37 47 60 70 87 115 105 93 81 71 61 64 57 48 51 55 55 55 63 70 72 69 69 70 65 61 61 64 66 63 62 60 62 62 67 70 73
Wind_Direction
278 274 271 268 266 266 264 261 255 249 248 243 240 238 234 230 230 230 232 234 237 233 234 235 236 232 221 216 219 220 226 223 218 222 236 245 257 261 258 255 258 259 262 265
281 276 274 275 272 266 259 258 252 249 246 241 238 237 234 231 230 227 229 232 234 234 232 232 234 235 226 217 217 217 223 223 216 216 228 249 260 258 260 259 260 262 262 261
286 284 283 280 279 277 271 264 257 247 245 244 238 234 232 228 227 227 226 229 232 234 231 230 231 234 229 220 218 216 219 225 221 219 237 247 245 249 262 261 266 263 259 263
290 288 286 282 276 273 272 266 263 250 248 246 238 237 233 230 225 225 224 225 228 231 232 228 228 232 228 223 221 217 216 222 227 227 225 250 244 264 261 254 260 264 263 262
298 292 284 276 277 274 277 269 261 252 249 249 242 231 236 230 228 225 223 222 225 227 229 230 227 230 229 224 222 220 217 218 222 225 228 237 250 261 240 254 254 266 267 269
295 283 276 283 285 284 284 281 265 256 248 252 244 230 237 231 226 223 221 221 222 226 226 228 228 228 227 223 221 221 217 217 219 220 226 228 226 249 244 257 271 272 279 278
294 290 291 294 294 293 294 291 281 266 250 250 243 232 232 232 226 226 222 220 220 224 226 224 227 227 227 222 219 217 218 216 217 217 218 209 207 223 243 257 263 274 272 273
306 308 300 305 298 292 291 289 281 266 260 251 249 236 237 232 227 225 223 220 218 220 225 224 223 225 224 222 218 217 217 217 218 218 219 222 226 229 247 252 256 253 267 270
299 298 303 305 304 297 289 284 284 270 256 251 250 243 239 232 230 224 223 221 218 217 220 222 221 223 221 221 216 219 218 219 218 219 224 226 233 240 248 250 251 245 256 261
302 302 309 309 309 302 296 287 283 274 260 248 245 243 234 233 228 223 221 218 216 215 216 222 214 218 218 218 214 216 219 220 219 220 226 230 233 233 237 248 250 247 240 251
308 313 311 309 311 310 304 292 289 283 274 259 245 241 239 231 227 223 218 216 215 212 211 216 214 210 214 212 213 218 220 221 221 221 224 227 232 234 241 245 247 246 245 253
317 315 308 312 316 313 301 292 285 284 277 258 237 241 236 230 225 220 216 215 213 211 207 211 214 207 205 211 209 216 219 222 222 223 224 225 229 235 240 244 247 250 255 259
318 317 312 313 311 314 308 305 289 282 274 257 239 240 230 221 220 216 215 213 209 206 206 206 210 205 201 206 206 212 217 219 219 221 221 226 231 226 228 242 247 252 258 262
322 320 324 325 314 313 305 307 300 284 271 264 244 244 224 218 214 211 206 203 202 200 201 205 202 200 199 203 206 208 209 210 214 218 213 218 225 226 237 245 251 251 256 257
323 322 328 328 319 319 324 303 292 287 271 255 241 236 212 210 202 201 193 187 187 192 190 194 190 192 196 199 201 195 196 201 208 210 212 217 225 232 236 237 240 249 257 260
325 326 327 327 323 327 330 303 308 285 267 245 226 212 197 186 184 183 175 170 176 176 180 182 184 187 193 192 187 189 189 197 200 207 208 212 218 230 234 244 244 249 256 260
333 331 327 329 345 333 318 326 310 286 244 220 209 196 182 170 170 169 166 161 169 163 171 174 181 182 186 182 179 174 188 196 201 210 209 216 221 239 229 234 241 251 256 262
328 333 342 346 352 0 353 357 327 269 184 177 163 180 170 161 159 153 147 149 157 155 163 170 178 174 177 171 168 177 192 199 205 215 220 216 218 215 220 230 247 251 259 264
330 343 353 349 9 18 18 5 337 39 140 142 148 158 148 137 129 137 139 144 149 155 151 170 170 169 168 169 171 177 189 203 204 201 210 197 215 215 224 240 250 255 259 266
332 354 357 355 357 16 34 12 340 42 143 131 137 132 123 114 130 129 133 137 142 144 150 161 164 166 166 164 162 168 179 196 194 213 215 219 221 220 239 236 246 248 258 262
333 341 342 356 352 357 46 36 32 119 141 134 137 132 119 125 122 124 128 130 129 123 133 158 163 165 166 167 171 180 187 202 208 214 212 218 227 223 231 241 243 253 257 257
322 333 338 338 345 335 28 73 110 137 145 142 132 129 128 121 121 120 121 126 130 148 164 174 172 168 172 175 181 181 186 190 192 199 212 215 224 228 231 236 241 244 248 259
323 338 337 331 330 341 149 118 137 141 148 132 133 134 133 125 125 126 126 131 136 167 172 176 176 179 183 181 180 187 195 203 205 206 219 216 218 220 230 238 244 247 256 263
325 327 335 336 345 53 145 130 136 142 138 138 138 138 134 130 127 130 126 117 143 164 173 179 181 183 187 189 191 197 202 205 209 213 215 213 218 229 235 240 246 253 258 266
319 336 334 333 44 146 152 133 136 139 142 145 139 136 136 133 122 118 117 131 139 144 165 186 186 191 193 194 196 200 201 209 208 209 213 218 226 232 237 242 247 258 268 274
337 330 337 98 139 158 149 133 139 145 146 147 143 139 139 136 132 127 123 139 152 154 179 182 186 192 199 200 200 201 205 209 216 218 223 228 233 235 244 256 264 273 277 286
Height
10557 10550 10545 10542 10534 10522 10516 10510 10510 10509 10506 10525 10534 10543 10572 10590 10605 10630 10631 10644 10651 10683 10709 10726 10736 10758 10790 10810 10818 10831 10834 10840 10849 10855 10868 10876 10879 10879 10878 10880 10887 10890 10891 10888
10529 10525 10518 10509 10505 10498 10494 10490 10489 10488 10484 10496 10499 10517 10539 10551 10570 10589 10606 10617 10626 10654 10688 10705 10717 10733 10771 10796 10808 10820 10821 10827 10843 10855 10857 10862 10869 10867 10866 10875 10880 10879 10882 10875
10506 10501 10495 10489 10482 10478 10473 10473 10472 10473 10469 10472 10478 10494 10500 10513 10533 10551 10578 10595 10606 10618 10656 10683 10696 10704 10746 10779 10797 10806 10810 10815 10830 10842 10851 10857 10858 10858 10857 10867 10870 10869 10870 10869
10491 10484 10479 10473 10470 10469 10459 10462 10456 10456 10455 10452 10467 10472 10481 10486 10503 10519 10547 10565 10582 10599 10622 10651 10674 10679 10723 10758 10778 10791 10801 10809 10818 10831 10842 10846 10853 10853 10852 10856 10862 10864 10864 10862
10477 10470 10467 10462 10457 10455 10448 10448 10445 10442 10442 10439 10447 10461 10453 10466 10484 10500 10517 10537 10552 10571 10589 10619 10648 10662 10698 10731 10760 10778 10792 10804 10812 10824 10834 10845 10857 10851 10848 10848 10850 10855 10852 10852
10462 10465 10457 10450 10444 10443 10438 10436 10433 10432 10433 10428 10435 10443 10440 10451 10459 10472 10487 10508 10530 10540 10565 10594 10623 10643 10674 10708 10736 10761 10782 10797 10805 10819 10829 10852 10864 10843 10833 10840 10840 10839 10840 10839
10455 10449 10442 10440 10436 10427 10426 10425 10423 10423 10421 10418 10424 10426 10422 10430 10449 10454 10467 10484 10507 10522 10541 10575 10598 10624 10657 10693 10716 10741 10763 10781 10796 10810 10820 10820 10849 10812 10820 10832 10835 10838 10836 10833
10444 10433 10430 10430 10427 10422 10414 10411 10410 10412 10408 10408 10409 10414 10415 10422 10429 10436 10449 10461 10481 10501 10513 10547 10577 10601 10640 10674 10702 10721 10743 10762 10778 10796 10808 10810 10816 10820 10822 10829 10830 10832 10828 10819
10441 10430 10425 10423 10414 10411 10405 10400 10401 10398 10399 10399 10398 10405 10405 10409 10412 10424 10433 10445 10463 10480 10492 10515 10557 10579 10621 10654 10687 10711 10728 10742 10758 10774 10787 10799 10805 10814 10816 10815 10822 10822 10816 10803
10432 10426 10419 10411 10406 10400 10397 10393 10390 10387 10389 10389 10393 10393 10392 10397 10401 10408 10417 10428 10444 10460 10479 10486 10526 10562 10596 10637 10675 10695 10711 10722 10744 10760 10772 10785 10800 10810 10795 10802 10809 10805 10800 10797
10424 10417 10411 10407 10401 10392 10387 10383 10380 10379 10379 10379 10382 10380 10379 10384 10389 10395 10400 10412 10421 10437 10459 10475 10508 10542 10579 10628 10665 10684 10695 10714 10739 10750 10767 10781 10794 10797 10791 10798 10801 10802 10792 10790
10417 10413 10407 10398 10390 10386 10380 10376 10373 10371 10370 10371 10373 10369 10369 10375 10379 10384 10389 10400 10415 10433 10452 10470 10493 10530 10582 10618 10654 10673 10687 10705 10728 10744 10761 10774 10781 10785 10788 10796 10792 10786 10780 10788
10412 10408 10403 10394 10386 10379 10373 10369 10366 10366 10364 10363 10365 10360 10363 10365 10369 10376 10386 10396 10410 10428 10448 10464 10488 10536 10576 10609 10644 10662 10680 10704 10722 10738 10754 10762 10769 10777 10782 10781 10778 10777 10778 10784
10407 10400 10393 10388 10382 10373 10367 10362 10360 10360 10358 10358 10356 10353 10356 10360 10368 10376 10383 10391 10407 10424 10442 10466 10497 10534 10573 10606 10633 10655 10680 10701 10718 10733 10745 10755 10764 10769 10770 10770 10767 10767 10769 10770
10401 10394 10387 10380 10374 10367 10362 10357 10354 10353 10353 10351 10349 10347 10354 10360 10367 10373 10381 10392 10407 10423 10439 10467 10496 10528 10563 10594 10623 10659 10682 10702 10717 10729 10738 10749 10755 10760 10761 10756 10756 10759 10761 10757
10398 10390 10381 10375 10368 10363 10357 10352 10350 10348 10348 10345 10344 10348 10351 10357 10363 10371 10379 10391 10403 10424 10444 10469 10495 10524 10555 10591 10633 10660 10685 10702 10716 10723 10733 10742 10747 10748 10744 10742 10748 10750 10750 10744
10393 10386 10380 10372 10364 10359 10355 10351 10348 10346 10344 10343 10347 10350 10353 10358 10363 10372 10385 10399 10414 10427 10450 10475 10499 10526 10563 10599 10637 10662 10682 10697 10708 10718 10730 10736 10738 10732 10730 10733 10738 10743 10740 10739
10390 10383 10376 10369 10363 10358 10355 10351 10348 10346 10345 10344 10350 10350 10357 10363 10371 10383 10397 10409 10428 10443 10467 10491 10512 10537 10572 10608 10635 10658 10676 10688 10699 10711 10721 10725 10721 10720 10721 10724 10731 10732 10729 10732
10387 10380 10374 10368 10363 10358 10356 10353 10349 10348 10348 10349 10354 10359 10366 10375 10384 10395 10405 10422 10439 10456 10472 10498 10521 10547 10580 10606 10630 10649 10671 10686 10695 10702 10707 10712 10711 10708 10718 10724 10721 10719 10723 10724
10385 10379 10373 10367 10363 10359 10355 10354 10353 10353 10353 10355 10359 10368 10378 10386 10394 10408 10417 10433 10452 10471 10489 10511 10533 10558 10583 10607 10627 10643 10660 10672 10686 10688 10690 10698 10703 10714 10715 10714 10711 10716 10715 10710
10382 10378 10373 10368 10363 10360 10355 10355 10355 10357 10363 10361 10367 10376 10389 10397 10403 10420 10428 10450 10470 10486 10511 10530 10545 10564 10588 10608 10626 10636 10652 10660 10672 10682 10688 10696 10704 10704 10702 10703 10706 10706 10701 10700
10380 10376 10373 10367 10363 10360 10358 10354 10356 10361 10363 10366 10372 10385 10397 10409 10421 10436 10445 10464 10483 10507 10524 10543 10557 10571 10588 10604 10622 10636 10645 10655 10668 10675 10680 10686 10691 10692 10694 10697 10694 10692 10691 10693
10378 10375 10371 10366 10361 10360 10359 10355 10357 10363 10367 10375 10379 10390 10405 10422 10435 10446 10458 10478 10501 10522 10535 10545 10560 10572 10583 10599 10618 10631 10642 10651 10656 10664 10670 10673 10677 10678 10681 10685 10683 10684 10684 10681
10376 10373 10370 10365 10361 10360 10359 10358 10361 10367 10376 10383 10387 10401 10420 10431 10448 10462 10473 10488 10507 10525 10540 10552 10565 10577 10590 10601 10613 10622 10631 10641 10650 10656 10662 10668 10673 10675 10674 10677 10677 10675 10675 10673
10375 10370 10366 10363 10361 10361 10360 10362 10367 10373 10380 10388 10395 10407 10430 10444 10455 10467 10482 10499 10517 10538 10546 10557 10566 10578 10589 10600 10611 10620 10626 10633 10639 10648 10656 10660 10661 10663 10666 10667 10670 10670 10668 10666
10372 10367 10363 10363 10362 10363 10365 10368 10374 10378 10384 10396 10404 10416 10436 10450 10463 10473 10490 10509 10529 10542 10547 10557 10569 10579 10589 10599 10609 10616 10622 10628 10635 10642 10646 10647 10651 10655 10658 10660 10660 10660 10658 10650